Weather History for KNCA - October, 2011

Change the Weather History Date:

Saturday, October 1, 2011

  Actual Average Record
Temperature  
Mean Temperature 58 °F -  
Max Temperature 68 °F 77 °F 86 °F (2002)
Min Temperature 50 °F 58 °F 46 °F (2001)
Degree Days  
Heating Degree Days 6    
Growing Degree Days 8 (Base 50)    
Moisture  
Dew Point 45 °F    
Average Humidity 62    
Maximum Humidity 90    
Minimum Humidity 37    
Precipitation  
Precipitation 0.00 in - - ()
Sea Level Pressure  
Sea Level Pressure 29.84 in    
Wind  
Wind Speed 11 mph (WNW)    
Max Wind Speed 17 mph    
Max Gust Speed 24 mph    
Visibility 10 miles    
Events      
Averages and records for this station are not official NWS values.
T = Trace of Precipitation, MM = Missing Value Source: NWS Daily Summary

Daily Weather History Graph

Daily Weather History Graph

Search for Another Location

Airport or City:

Trip Planner

Search our weather history database for the weather conditions in past years. The results will help you decide how hot, cold, wet, or windy it might be!

Date:

Astronomy

Oct. 01, 2011 Rise Set
Actual Time 7:04 AM EDT 6:54 PM EDT
Civil Twilight 6:39 AM EDT 7:19 PM EDT
Nautical Twilight 6:09 AM EDT 7:48 PM EDT
Astronomical Twilight 5:40 AM EDT 8:17 PM EDT
Moon 11:54 AM EDT (10/1) 10:03 PM EDT (10/1)
Length of Visible Light 12h 40m
Length of Day
11h 49m
Waxing Crescent, 24% of the Moon is Illuminated
Oct 1
Waxing Crescent
Oct 3
First Quarter
Oct 11
Full
Oct 19
Last Quarter
Oct 26
New

Hourly Weather History & Observations

Time (EDT) Temp. Dew Point Humidity Pressure Visibility Wind Dir Wind Speed Gust Speed Precip Events Conditions
12:56 AM - - N/A% 29.75 in - North - - N/A   Unknown
1:56 AM 59.0 °F 55.9 °F 90% 29.75 in 10.0 mi NW 8.1 mph - N/A   Clear
2:56 AM - - N/A% 29.75 in - North - - N/A   Unknown
3:56 AM - - N/A% 29.74 in - North - - N/A   Unknown
4:56 AM 55.9 °F 52.0 °F 87% 29.75 in 10.0 mi WNW 10.4 mph - N/A   Unknown
5:56 AM 55.9 °F 50.0 °F 80% 29.77 in 10.0 mi WNW 8.1 mph - N/A   Clear
6:56 AM 54.0 °F 50.0 °F 86% 29.81 in 10.0 mi WNW 8.1 mph - N/A   Clear
7:56 AM 55.0 °F 50.0 °F 83% 29.82 in 10.0 mi NW 11.5 mph 17.3 mph N/A   Clear
8:56 AM 57.9 °F 48.9 °F 72% 29.84 in 10.0 mi NW 12.7 mph - N/A   Partly Cloudy
9:56 AM 60.1 °F 46.9 °F 62% 29.85 in 10.0 mi NW 13.8 mph - N/A   Clear
10:56 AM 62.1 °F 45.0 °F 53% 29.84 in 10.0 mi WNW 10.4 mph - N/A   Clear
11:56 AM 64.0 °F 45.0 °F 50% 29.84 in 10.0 mi NW 16.1 mph 20.7 mph N/A   Clear
12:56 PM 64.9 °F 42.1 °F 43% 29.84 in 10.0 mi NW 16.1 mph - N/A   Clear
1:56 PM 66.9 °F 42.1 °F 40% 29.83 in 10.0 mi NNW 13.8 mph 20.7 mph N/A   Clear
2:56 PM 66.0 °F 42.1 °F 42% 29.83 in 10.0 mi WNW 11.5 mph 20.7 mph N/A   Partly Cloudy
3:56 PM 66.0 °F 39.0 °F 37% 29.85 in 10.0 mi WNW 17.3 mph - N/A   Clear
4:56 PM 64.9 °F 37.9 °F 37% 29.86 in 10.0 mi WNW 15.0 mph 24.2 mph N/A   Scattered Clouds
5:56 PM 63.0 °F 37.9 °F 40% 29.88 in 10.0 mi WNW 12.7 mph - N/A   Clear
6:56 PM 60.1 °F 39.9 °F 47% 29.90 in 10.0 mi WNW 9.2 mph - N/A   Clear
7:56 PM 55.9 °F 43.0 °F 62% 29.92 in 10.0 mi West 6.9 mph - N/A   Clear
8:56 PM 54.0 °F 43.0 °F 66% 29.93 in 10.0 mi WNW 5.8 mph - N/A   Clear
9:56 PM 51.1 °F 44.1 °F 77% 29.95 in 10.0 mi West 6.9 mph - N/A   Clear
10:56 PM 53.1 °F 41.0 °F 64% 29.97 in 10.0 mi WNW 12.7 mph - N/A   Clear
11:56 PM 50.0 °F 42.1 °F 74% 29.96 in 10.0 mi West 6.9 mph - N/A   Clear